{"data":{"norad_id":55676,"epoch":"2026-05-25T04:12:45.125856Z","epoch_age_seconds":66769,"freshness":"FRESH","line1":"1 55676U 23021BA  26145.17552229  .00003637  00000+0  31240-3 0  9999","line2":"2 55676  70.0007 311.6430 0002624 268.1002  91.9857 14.98339642181239","mean_motion":14.98339642,"eccentricity":0.0002624,"inclination_deg":70.0007,"raan_deg":311.643,"arg_perigee_deg":268.1002,"mean_anomaly_deg":91.9857,"bstar":0.0003124,"rev_number":18123,"period_min":96.106380665326,"perigee_km":570.20235122406,"apogee_km":573.84979680531,"semimajor_km":6950.1630740147,"source":"CELESTRAK","updated_at":"2026-05-25T13:38:17.877328Z"}}